Regional Weather Roundup
Issued by NWS

Home | Current Version | Previous Version | Text Only | Print | Product List | Glossary On
Versions: 1 2 3 4 5 6 7 8 9 10 11 12 13 14 15 16 17 18 19 20 21 22 23 24 25 26 27 28 29 30 31 32 33 34 35 36 37 38 39 40 41 42 43 44 45 46 47 48 49 50
000
ASUS46 KPQR 191810
RWROR

OREGON REGIONAL WEATHER ROUNDUP
NATIONAL WEATHER SERVICE PORTLAND OR
1000 AM PST FRI DEC 19 2014

NOTE: "FAIR" INDICATES FEW OR NO CLOUDS BELOW 12,000 FEET WITH
NO SIGNIFICANT WEATHER AND/OR OBSTRUCTIONS TO VISIBILITY.

ORZ001>013-191900-
NORTHWEST OREGON


CITY           SKY/WX    TMP DP  RH WIND       PRES   REMARKS
ASTORIA        MOSUNNY   48  43  82 SE7       29.93R
6HR MIN TEMP:  45; 6HR MAX TEMP:  50; 6HR PCP: TRACE;

NEWPORT        RAIN      48  45  87 S10       30.01R
PORTLAND       MOSUNNY   48  45  89 SE8       30.02R
6HR MIN TEMP:  43; 6HR MAX TEMP:  48; 6HR PCP:  0.04;

VANCOUVER WA   PTSUNNY   47  42  83 E8        30.01R
6HR MIN TEMP:  44; 6HR MAX TEMP:  47; 6HR PCP:  0.03;

SCAPPOOSE      CLOUDY    47  43  86 SE7       30.00R
6HR MIN TEMP:  45; 6HR MAX TEMP:  48; 6HR PCP:  0.02;

HILLSBORO      PTSUNNY   46  43  89 S7        30.00R
6HR MIN TEMP:  41; 6HR MAX TEMP:  46; 6HR PCP:  0.04;

AURORA         MOSUNNY   47  44  90 S10       30.02R
6HR MIN TEMP:  43; 6HR MAX TEMP:  47; 6HR PCP:  0.06;

MCMINNVILLE    LGT RAIN  47  43  86 CALM      30.01R
6HR MIN TEMP:  42; 6HR MAX TEMP:  47; 6HR PCP:  0.04;

SALEM          PTSUNNY   47  43  86 S10       30.01R
6HR MIN TEMP:  45; 6HR MAX TEMP:  47; 6HR PCP:  0.18;

CORVALLIS      CLOUDY    48  43  81 S12       30.04R
EUGENE         PTSUNNY   46  42  86 S6        30.04R
6HR MIN TEMP:  42; 6HR MAX TEMP:  47; 6HR PCP:  0.31;

$$

ORZ021-028-191900-
SOUTHWEST OREGON


CITY           SKY/WX    TMP DP  RH WIND       PRES   REMARKS
NORTH BEND     SUNNY     48  46  93 SE9       30.04R
6HR MIN TEMP:  45; 6HR MAX TEMP:  48; 6HR PCP:  0.16;

BROOKINGS      PTSUNNY   50  50 100 VRB5      30.07R
ROSEBURG       CLOUDY    48  42  80 CALM      30.05R
6HR MIN TEMP:  46; 6HR MAX TEMP:  48; 6HR PCP:  0.09;

SEXTON SUMMIT  FOG       36  36 100 S12       30.00R VSB<1/4 WCI  28
6HR MIN TEMP:  35; 6HR MAX TEMP:  36; 6HR PCP:  0.10;

MEDFORD        CLOUDY    46  43  89 W5        30.07R
6HR MIN TEMP:  44; 6HR MAX TEMP:  46; 6HR PCP:  0.03;

$$

ORZ014>016-041-191900-
COLUMBIA GORGE


CITY           SKY/WX    TMP DP  RH WIND       PRES   REMARKS
TROUTDALE      MOSUNNY   48  43  82 E5        30.01R
6HR MIN TEMP:  44; 6HR MAX TEMP:  48; 6HR PCP:  0.01;

THE DALLES     CLOUDY    40  38  93 CALM      30.01R FOG
6HR MIN TEMP:  35; 6HR MAX TEMP:  40; 6HR PCP:  0.01;

$$

ORZ029>031-041-044-049-050-061>064-502-503-505>511-191900-
EASTERN OREGON


CITY           SKY/WX    TMP DP  RH WIND       PRES   REMARKS
REDMOND        LGT RAIN  41  35  79 NW6       29.98R
6HR MIN TEMP:  36; 6HR MAX TEMP:  42; 6HR PCP: TRACE;

BEND           LGT RAIN  39  34  81 NW9       29.99R WCI  33
PRINEVILLE     LGT RAIN  39  36  87 W7        29.98R WCI  34
KLAMATH FALLS  PTSUNNY   37  34  89 CALM      30.03R
6HR MIN TEMP:  35; 6HR MAX TEMP:  37; 6HR PCP:  0.09;

LAKEVIEW       CLOUDY    36  34  93 S16       30.04S WCI  26
HERMISTON      CLOUDY    43  41  93 S6        29.97R FOG
6HR MIN TEMP:  38; 6HR MAX TEMP:  43; 6HR PCP:  0.01;

PENDLETON      LGT RAIN  41  40  96 SE7       29.96R FOG
6HR MIN TEMP:  36; 6HR MAX TEMP:  46; 6HR PCP:  0.10;

JOHN DAY       RAIN      41  36  82 S13       29.97S
MEACHAM        CLOUDY    37  35  92 CALM      29.92R
6HR MIN TEMP:  35; 6HR MAX TEMP:  37; 6HR PCP:  0.16;

LA GRANDE      CLOUDY    41  30  65 S13       29.95S
6HR MIN TEMP:  41; 6HR MAX TEMP:  43;

BAKER CITY     CLOUDY    37  34  89 E13       29.98S WCI  29
6HR MIN TEMP:  36; 6HR MAX TEMP:  38; 6HR PCP:  0.03;

BURNS          CLOUDY    36  33  89 NE5       30.01R WCI  32
6HR MIN TEMP:  33; 6HR MAX TEMP:  36; 6HR PCP:  0.09;

ROME             N/A     40  35  83 S7        30.03R
6HR MIN TEMP:  36; 6HR MAX TEMP:  41; 6HR PCP:  0.04;

ONTARIO        LGT RAIN  39  37  92 CALM      30.08R FOG
6HR MIN TEMP:  36; 6HR MAX TEMP:  40; 6HR PCP:  0.14;

$$


USA.gov is the U.S. government's official web portal to all federal, state and local government web resources and services.